TimeMST,TemperatureF,Dew PointF,Humidity,Sea Level PressureIn,VisibilityMPH,Wind Direction,Wind SpeedMPH,Gust SpeedMPH,PrecipitationIn,Events,Conditions,WindDirDegrees,DateUTC
12:53 AM,34.0,21.9,61,29.92,10.0,East,4.6,-,N/A,,Overcast,80,2011-11-12 07:53:00
1:53 AM,34.0,23.0,64,29.91,10.0,SE,3.5,-,N/A,,Overcast,130,2011-11-12 08:53:00
2:53 AM,35.1,21.9,59,29.89,10.0,Calm,Calm,-,N/A,,Overcast,0,2011-11-12 09:53:00
3:53 AM,34.0,23.0,64,29.88,10.0,East,3.5,-,N/A,,Overcast,90,2011-11-12 10:53:00
4:53 AM,35.1,21.9,59,29.86,10.0,East,3.5,-,N/A,,Overcast,80,2011-11-12 11:53:00
5:53 AM,32.0,26.1,79,29.88,10.0,NW,4.6,-,N/A,,Mostly Cloudy,320,2011-11-12 12:53:00
6:53 AM,28.9,23.0,78,29.89,10.0,North,3.5,-,N/A,,Partly Cloudy,360,2011-11-12 13:53:00
7:53 AM,33.1,24.1,70,29.89,10.0,Calm,Calm,-,N/A,,Mostly Cloudy,0,2011-11-12 14:53:00
8:53 AM,37.0,25.0,62,29.88,10.0,WSW,4.6,-,N/A,,Overcast,240,2011-11-12 15:53:00
9:53 AM,39.9,26.1,58,29.83,10.0,Calm,Calm,-,N/A,,Mostly Cloudy,0,2011-11-12 16:53:00
10:53 AM,45.0,25.0,46,29.83,10.0,Calm,Calm,-,N/A,,Overcast,0,2011-11-12 17:53:00
11:53 AM,52.0,26.1,37,29.76,10.0,East,12.7,-,N/A,,Mostly Cloudy,100,2011-11-12 18:53:00
12:53 PM,54.0,28.0,37,29.71,10.0,West,12.7,-,N/A,,Mostly Cloudy,270,2011-11-12 19:53:00
1:53 PM,50.0,27.0,41,29.70,10.0,Variable,4.6,-,N/A,,Overcast,0,2011-11-12 20:53:00
2:53 PM,53.1,23.0,31,29.63,10.0,NNE,4.6,-,N/A,,Mostly Cloudy,30,2011-11-12 21:53:00
3:53 PM,50.0,25.0,38,29.67,10.0,NW,10.4,-,N/A,,Mostly Cloudy,320,2011-11-12 22:53:00
4:53 PM,48.0,24.1,39,29.68,10.0,North,8.1,-,N/A,,Mostly Cloudy,10,2011-11-12 23:53:00
5:53 PM,46.9,24.1,41,29.70,10.0,Calm,Calm,-,N/A,,Mostly Cloudy,0,2011-11-13 00:53:00
6:53 PM,41.0,23.0,49,29.75,10.0,NE,8.1,-,N/A,,Scattered Clouds,50,2011-11-13 01:53:00
7:53 PM,42.1,24.1,49,29.75,10.0,NE,8.1,-,N/A,,Scattered Clouds,40,2011-11-13 02:53:00
8:53 PM,39.9,24.1,53,29.78,10.0,NNE,8.1,-,N/A,,Clear,30,2011-11-13 03:53:00
9:53 PM,39.0,25.0,57,29.79,10.0,ENE,4.6,-,N/A,,Mostly Cloudy,60,2011-11-13 04:53:00
10:53 PM,43.0,26.1,51,29.76,10.0,NE,5.8,-,N/A,,Overcast,40,2011-11-13 05:53:00
11:53 PM,42.1,26.1,53,29.75,10.0,NNE,5.8,-,N/A,,Overcast,30,2011-11-13 06:53:00